Sigil TimeFrame

99 2020-05-30 22:40:06
NameTime LeftWindow Opens
Keeper of Nature2d 04:012020-05-29 09:08:00
Skybrine The Inescapable1d 23:132020-05-29 13:56:00
Anvilfist1d 22:362020-05-29 14:33:00
Sylvanna TorLai1d 20:262020-05-29 16:43:00
Great Lord Ganeshan1d 19:322020-05-29 17:37:00
Windstrike The Vile1d 02:552020-05-30 10:14:00
Beast of Cards0d 18:202020-05-30 18:49:00
Jade Dragonite0d 18:062020-05-30 19:03:00
Volgan the Living Ironbark0d 14:012020-05-30 23:08:00
Crolvak, the Fire Master0d 12:392020-05-31 00:30:00
Tsort0d 09:402020-05-31 03:29:00
Noxious Slug0d 07:072020-05-31 06:02:00
Samatha Dark-Soul0d 06:362020-05-31 06:33:00
Lord Varan0d 06:082020-05-31 07:01:00
Lord Xordam0d 05:012020-05-31 08:08:00
Ancient Magus Tarkin0d 04:542020-05-31 08:15:00
Detox0d 04:322020-05-31 08:37:00
Dreg nor, Keeper of the Infernal Essence0d 02:032020-05-31 11:06:00
Nessam0d 00:322020-05-31 12:37:00
Shadow0d 02:132020-05-31 15:23:00
Baron Mu, Dark Rider of the Undead0d 02:302020-05-31 15:40:00
Quiver, The Renegade0d 02:442020-05-31 15:54:00
Jorun the Blazing Swordsman0d 02:552020-05-31 16:05:00
Archdevil Yirkon0d 03:232020-05-31 16:33:00
Animated Captain0d 03:342020-05-31 16:44:00
Old World Drake0d 03:392020-05-31 16:49:00
Synge, The Red Dragon0d 03:472020-05-31 16:57:00
Murderface0d 04:192020-05-31 17:29:00
Terrance, Rebel of Rallis0d 04:292020-05-31 17:39:00
Freezebreed, The Frozen Manipulator0d 04:322020-05-31 17:42:00
Smoot the Yeti0d 04:402020-05-31 17:50:00
Tylos, The Lord Master0d 05:392020-05-31 18:49:00
Varsanor, Master of Darkness0d 06:222020-05-31 19:32:00
Garland, The Lord Keeper0d 06:382020-05-31 19:48:00
Vitkros, Hydra of the Deep0d 08:172020-05-31 21:27:00
Zikkir the Dark Archer0d 08:552020-05-31 22:05:00
Gnorb0d 09:282020-05-31 22:38:00
Ormsul the Putrid0d 11:072020-06-01 00:17:00
Anguish0d 13:572020-06-01 03:07:00
Melt Bane, The Forbidden Demon Dragon0d 15:122020-06-01 04:22:00
Pinosis0d 15:392020-06-01 04:49:00
Wanhiroeaz the Devourer0d 16:212020-06-01 05:31:00
Hyrak, Bringer of Nightmares0d 16:302020-06-01 05:40:00
Ebliss, Fallen Angel of Despair0d 17:332020-06-01 06:43:00
Rancid, Lord of Thugs0d 18:002020-06-01 07:10:00
Mistress of the Sword0d 18:032020-06-01 07:13:00
Brutalitar, Lord of the Underworld0d 19:362020-06-01 08:46:00
Emperor Neudeus, Controller of the Universe0d 20:212020-06-01 09:31:00
Ganja the Stone Golem0d 21:102020-06-01 10:20:00
Ag Nabak the Abomination0d 21:172020-06-01 10:27:00
Lord Narada0d 22:152020-06-01 11:25:00
Sarcrina the Astral Priestess1d 00:042020-06-01 13:14:00
Lady Chaos, Queen of the Abyss1d 01:112020-06-01 14:21:00
Crane1d 01:552020-06-01 15:05:00
Sigil, Lich of Woe1d 05:162020-06-01 18:26:00
Rotborn, Eater of the Dead1d 05:532020-06-01 19:03:00
Traxodon the Plaguebringer1d 10:162020-06-01 23:26:00
Bolkor, the Holy Master1d 12:282020-06-02 01:38:00
Bloodchill the Grizzly1d 12:392020-06-02 01:49:00
Threk, King of Lords1d 15:562020-06-02 05:06:00
The Emerald Assassin1d 17:132020-06-02 06:23:00
Lord Suka1d 17:402020-06-02 06:50:00
King Ashnar, Lord of the Unliving1d 19:122020-06-02 08:22:00
Lady Ariella1d 19:572020-06-02 09:07:00
Dlanod, the Crazed Chancellor1d 21:052020-06-02 10:15:00
Hackerphage, Protector of the Gateway1d 22:502020-06-02 12:00:00
Jazzmin, Maiden of Vitality1d 23:072020-06-02 12:17:00
Numerocure, The Black Messenger of Evil2d 01:382020-06-02 14:48:00
Lord Sibannac2d 01:502020-06-02 15:00:00
Amalgamated Apparition2d 05:212020-06-02 18:31:00
Felroc, Overseer of Hellfire2d 05:472020-06-02 18:57:00
Gorganus of the Wood2d 07:082020-06-02 20:18:00
Nayark the Mummified Sorcerer2d 09:482020-06-02 22:58:00
Kro Shuk, Doomslayer2d 11:202020-06-03 00:30:00
Slashbrood, Devourer of the Blackness2d 14:572020-06-03 04:07:00
Zertan, The Collector2d 15:292020-06-03 04:39:00
Kretok, Descendant of Nature2d 18:172020-06-03 07:27:00
Karvaz, Lord of Alsayic2d 18:562020-06-03 08:06:00
Nar Zhul, Slayer of All2d 21:272020-06-03 10:37:00
Akkel the Enflamed Warrior2d 22:192020-06-03 11:29:00
Murfax, Beast of the Caves2d 23:372020-06-03 12:47:00
Grivvek, Protector of the Brood3d 06:282020-06-03 19:38:00
Lacuste of the Swarm3d 07:122020-06-03 20:22:00
Nafir, God of Desolation3d 08:182020-06-03 21:28:00
Raiyar, the Shadow Master3d 09:222020-06-03 22:32:00
Howldroid, Tormentor of the Pit3d 11:522020-06-04 01:02:00
Gregov, Knight of the Woods3d 13:322020-06-04 02:42:00
Esquin, the Kinetic Master3d 17:272020-06-04 06:37:00
Straya, the Underworld Ruler3d 22:042020-06-04 11:14:00
Crantos, Defender of Ultimation4d 00:402020-06-04 13:50:00
Balerion, Dragon of Dread4d 06:522020-06-04 20:02:00
Q-SEC Commander4d 10:152020-06-04 23:25:00
Xynak, the Arcane Master4d 10:342020-06-04 23:44:00
Skarthul the Avenged4d 14:192020-06-05 03:29:00
Dexor, Victor of Veldara5d 00:282020-06-05 13:38:00
Viserion, the Necrodragon5d 02:362020-06-05 15:46:00
Thanox, Balancer of Chaos8d 21:122020-06-09 10:22:00
Shaik, Servant of Arkron183d 23:002019-11-29 14:09:00
Rook, Hand of Arkron182d 03:162019-12-01 09:53:00